[Iaude] MPEC O65: 2024 OB [a=2.70,e=0.58,i=13.3,H=23.1]
    mpec at cfa.harvard.edu 
    mpec at cfa.harvard.edu
       
    Sat Jul 27 17:07:30 EDT 2024
    
    
  
M.P.E.C. 2024-O65                                 Issued 2024 July 27, 21:06 UT
     The Minor Planet Electronic Circulars contain information on unusual
         minor planets, routine data on comets and natural satellites,
         and occasional editorial announcements.  They are published
    on behalf of Division F of the International Astronomical Union by the
          Minor Planet Center, Smithsonian Astrophysical Observatory,
                          Cambridge, MA 02138, U.S.A.
			  
             Prepared using the Tamkin Foundation Computer Network
                              MPC at CFA.HARVARD.EDU
            URL https://www.minorplanetcenter.net/    ISSN 1523-6714
                                    2024 OB                                     
Observations:
     K24O00B* C2024 07 26.45290420 12 18.167-09 24 19.99         19.81wXEO065F52
     K24O00B  C2024 07 26.47933820 12 22.163-09 20 47.97         19.74wXEO065F52
     K24O00B  C2024 07 26.49252020 12 24.162-09 19 02.38         19.79wXEO065F52
     K24O00B  C2024 07 26.56042820 12 34.667-09 09 57.44               VEO065F52
     K24O00B KB2024 07 26.62366620 12 48.821-09 01 49.22         18.0 VZEO065Q06
     K24O00B KB2024 07 26.63129520 12 49.973-09 00 49.34         18.7 VZEO065Q06
     K24O00B KB2024 07 26.63892820 12 51.204-08 59 47.59               ZEO065Q06
     K24O00B KB2024 07 26.85480 20 13 31.45 -08 31 16.4          19.8 GXEO065G03
     K24O00B KB2024 07 26.86115 20 13 32.45 -08 30 25.9          18.7 GXEO065G03
     K24O00B KB2024 07 26.86749 20 13 33.49 -08 29 36.0          18.3 GXEO065G03
     K24O00B KB2024 07 26.87452 20 13 35.10 -08 28 37.0          19.7 GXEO065K78
     K24O00B KC2024 07 26.87881 20 13 35.66 -08 28 03.7          19.4 GXEO065K83
     K24O00B KB2024 07 26.88043 20 13 36.00 -08 27 50.3          19.2 GXEO065K78
     K24O00B KB2024 07 26.88381 20 13 36.466-08 27 25.20         18.9 GVEO065L47
     K24O00B KB2024 07 26.88633 20 13 36.94 -08 27 03.5          19.4 GXEO065K78
     K24O00B KC2024 07 26.88776920 13 36.89 -08 26 54.1          19.6 GXEO065595
     K24O00B KB2024 07 26.88821 20 13 37.106-08 26 49.74         27.1 GVEO065L47
     K24O00B KC2024 07 26.89822 20 13 38.72 -08 25 29.7          19.3 GVEO065104
     K24O00B KC2024 07 26.89897 20 13 38.90 -08 25 23.5          19.8 GXEO065K83
     K24O00B KC2024 07 26.89920920 13 38.71 -08 25 23.6          19.4 GXEO065595
     K24O00B KC2024 07 26.90594 20 13 39.94 -08 24 28.5          19.0 GVEO065104
     K24O00B KC2024 07 26.91062720 13 40.51 -08 23 53.1                XEO065595
     K24O00B KC2024 07 26.91615020 13 41.36 -08 23 08.9          20.2 GVEO065L01
     K24O00B KC2024 07 26.91656 20 13 41.60 -08 23 03.9          19.4 GVEO065104
     K24O00B KC2024 07 26.91771220 13 41.63 -08 22 56.9          19.9 GVEO065L01
     K24O00B IC2024 07 26.91927720 13 41.90 -08 22 44.2          19.7 GVEO065L01
     K24O00B KC2024 07 26.92084720 13 42.13 -08 22 31.1          19.5 GVEO065L01
     K24O00B KC2024 07 26.92241320 13 42.33 -08 22 19.4          19.6 GVEO065L01
     K24O00B KC2024 07 26.92439 20 13 42.77 -08 22 03.8                VEO065K51
     K24O00B KC2024 07 26.93197 20 13 43.95 -08 21 03.7          19.9 GVEO065K51
     K24O00B KB2024 07 26.93206520 13 44.65 -08 21 01.7          20.0 GXEO065I93
     K24O00B KB2024 07 26.93712820 13 45.41 -08 20 21.4          19.8 GXEO065I93
     K24O00B KC2024 07 26.93955 20 13 45.14 -08 20 04.2          19.7 GVEO065K51
     K24O00B KB2024 07 26.94129920 13 46.08 -08 19 48.4          19.2 GXEO065I93
     K24O00B KC2024 07 26.97206 20 13 49.81 -08 14 34.1          19.3 GVEO065M21
     K24O00B KC2024 07 26.99201 20 13 52.79 -08 11 55.3          18.9 GVEO065M21
     K24O00B 7C2024 07 26.99917320 13 55.202-08 12 03.98         19.0 GVEO065Z84
     K24O00B 7C2024 07 27.00203720 13 55.642-08 11 41.30         19.0 GVEO065Z84
     K24O00B KC2024 07 27.54855 20 15 31.38 -06 58 32.2          19.7 VqEO065E23
     K24O00B KC2024 07 27.56591 20 15 34.01 -06 56 16.3          19.2 VqEO065E23
     K24O00B KC2024 07 27.58327 20 15 36.60 -06 54 00.0          19.9 VqEO065E23
     K24O00B KB2024 07 27.84848 20 16 24.33 -06 20 48.0          19.9 RZEO065106
     K24O00B KB2024 07 27.85335 20 16 25.13 -06 20 10.2          19.8 RZEO065106
     K24O00B KB2024 07 27.85838 20 16 25.92 -06 19 30.7          19.9 RZEO065106
     K24O00B KB2024 07 27.86309 20 16 26.71 -06 18 54.6          19.3 RZEO065106
Observer details:
104 San Marcello Pistoiese.  Observers P. Bacci, M. Maestripieri, M. D.
    Grazia.  Measurers P. Bacci, L. Tesi, G. Fagioli.  0.60-m F4 Reflector +
    CCD.
106 Crni Vrh.  Observer J. Vales.  0.60-m f/3.3 reflector + CMO.
595 Farra d'Isonzo.  Observer E. Pettarin.  0.61-m f/4.5 reflector + CCD.
E23 Arcadia.  Observer A. Hidas.  0.35-m f/1.9 reflector + CCD.
F52 Pan-STARRS 2, Haleakala.  Observers J. Herman, T. Lowe, P. Minguez, A.
    Schultz, I. Smith.  Measurers K. Chambers, T. de Boer, J. Fairlamb, H.
    Gao, M. Huber, C.-C. Lin, E. Magnier, Y. Ramanjooloo, R. Wainscoat, R.
    Weryk.  1.8-m Ritchey-Chretien + CCD.
G03 Capricornus Observatory, Csokako.  Observer T. Maroti.  0.25-m f/4.8
    Newton + CMO.
I93 St Pardon de Conques.  Observer F. Losse.  0.40-m f/3.7 reflector + CMO.
K51 Osservatorio del Celado, Castello Tesino.  Observer M. Campestrin.  0.80-m
    f/4 reflector + CCD.
K78 iota Scorpii Observatory, La Spezia.  Observers G. Scarfi, P. Boongerd.
    0.40-m f/6.1 reflector + CMO.
K83 Beppe Forti Astronomical Observatory, Montelupo.  Observers M. Tombelli,
    M. Iozzi, E. Venticinque, T. Bitossi, A. Mazzanti, G. Interrante, G.
    Ferrini, L. Grazzini, G. Baldi.  Measurers M. Tombelli, F. Bernardi, F.
    Cheli, A. Squilloni.  0.40-m f/8 Ritchey-Chretien + CMOS.
L01 Visnjan Observatory, Tican.  Observers K. Korlevic, L. Poropat.  Measurer
    K. Korlevic.  1.0-m f/2.9 reflector + CCD.
L47 Osservatorio Astronomico, Piobbico.  Observers A. Teseo, A. Annamelia.
    Measurer A. Teseo.  0.28-m f/6.3 Schmidt-Cassegrain + CMO.
M21 Schiaparelli Southern Observatory, Hakos.  Observers A. Aletti, F.
    Bellini, L. Buzzi, G. Galli.  Measurer G. Galli.  0.36-m f/8.4 reflector +
    CCD.
Q06 Tarui Observatory, Tarui.  Observer H. Watanabe.  0.35-m f/1.9 Schmidt-
    Cassegrain + CMO.
Z84 Calar Alto-Schmidt.  Observers M. Micheli, F. Ocana, R. Kresken, L.
    Conversi.  Measurers F. Ocana, M. Micheli.  0.8-m f/3 Schmidt + CCD.
Orbital elements:
2024 OB                                                  Earth MOID = 0.1297 AU
Epoch 2024 Oct. 17.0 TT = JDT 2460600.5                 MPC                     
M  18.27968              (2000.0)            P               Q                  
n   0.22204128     Peri.    5.32358     +0.55585251     +0.80645900             
a   2.7009315      Node   298.59605     -0.77090968     +0.40934804             
e   0.5765203      Incl.   13.27558     -0.31100843     +0.42668262             
P   4.44           H   23.17          G   0.15           U   8                  
Residuals in seconds of arc
240726 F52  0.1+  0.1-    240726 595  0.5-  0.1+    240726 I93  0.4+  0.1-
240726 F52  0.0   0.1+    240726 L47  0.1+  0.7-    240726 I93  0.0   0.0
240726 F52  0.1-  0.0     240726 104  0.5-  0.2+    240726 K51  0.1+  0.6-
240726 F52  0.6-  0.1-    240726 K83  0.5+  0.3+    240726 I93  0.2+  0.0
240726 Q06  0.6-  0.2+    240726 595  0.2-  0.1-    240726 M21  0.0   0.3-
240726 Q06  0.9-  0.8-    240726 104  0.3-  0.2+    240726 M21  0.0   0.1+
240726 Q06  0.0   0.0     240726 595  0.1-  0.1-    240726 Z84  0.0   0.0
240726 G03  0.3+  0.4+    240726 L01  0.3-  0.2-    240727 Z84  0.1+  0.0
240726 G03  0.1+  0.6+    240726 104  0.3-  0.6+    240727 E23  0.3-  0.4+
240726 G03  0.6+  0.2+    240726 L01  0.1+  0.5-    240727 E23  0.2+  0.1+
240726 K78  0.6+  0.7+    240726 L01  0.5+  0.2-    240727 E23  0.2+  0.2+
240726 K83  0.5-  0.2-    240726 L01  0.3+  0.4+    240727 106  0.6-  0.1-
240726 K78  0.1+  0.6+    240726 L01  0.4-  0.3-    240727 106  0.1-  0.2-
240726 L47  0.8+  1.3-    240726 K51  0.1+  0.1+    240727 106  0.0   0.2+
240726 K78  0.2+  0.6+    240726 K51  0.0   0.1+    240727 106  0.9+  0.4-
Ephemeris:
2024 OB                  a,e,i = 2.70, 0.58, 13                  q = 1.1438
Date    TT    R. A. (2000) Decl.     Delta      r    Elong.  Phase     V
2024 06 27    18 28 33.3 -55 22 18   0.2092  1.1990   147.9    26.7    21.4
...
2024 07 12    19 23 17.6 -39 27 29   0.1470  1.1576   162.5    15.3    20.2
...
2024 07 20    19 51 48.9 -23 53 49   0.1307  1.1466   176.5     3.1    19.4
...
2024 07 26    20 10 57.8 -10 24 26   0.1297  1.1438   170.6     8.4    19.6
2024 07 27    20 13 55.1 -08 11 16   0.1305  1.1438   168.6    10.1    19.7
2024 07 28    20 16 48.2 -06 00 23   0.1316  1.1439   166.6    11.8    19.8
...
2024 08 03    20 32 40.3 +05 50 01   0.1433  1.1473   156.1    21.0    20.3
...
2024 08 11    20 50 23.3 +17 19 40   0.1700  1.1589   146.4    29.0    20.9
...
2024 08 26    21 16 06.0 +27 52 17   0.2399  1.2014   138.7    33.7    21.9
A. U. Tomatic                (C) Copyright 2024 MPC           M.P.E.C. 2024-O65
    
    
More information about the Iaude
mailing list